Change the Weather History Date:

Wednesday, May 22, 2013

  Actual Average Record
Temperature  
Mean Temperature 63 °F 67 °F  
Max Temperature 75 °F 78 °F 97 °F (1925)
Min Temperature 50 °F 56 °F 35 °F (1931)
Degree Days  
Heating Degree Days 2 2  
Month to date heating degree days 123 84  
Since 1 July heating degree days 4913 4852  
Cooling Degree Days 0 4  
Month to date cooling degree days 47 56  
Year to date cooling degree days 62 81  
Growing Degree Days 12 (Base 50)    
Moisture  
Dew Point 48 °F    
Average Humidity 63    
Maximum Humidity 80    
Minimum Humidity 46    
Precipitation  
Precipitation 0.00 in 0.17 in 2.14 in (1995)
Month to date precipitation 2.77 3.21  
Year to date precipitation 8.99 10.45  
Sea Level Pressure  
Sea Level Pressure 29.88 in    
Wind  
Wind Speed 10 mph (NNW)    
Max Wind Speed 21 mph    
Max Gust Speed 29 mph    
Visibility 10 miles    
Events      
T = Trace of Precipitation, MM = Missing Value Source: NWS Daily Summary

Daily Weather History Graph

Daily Weather History Graph

Search for Another Location

Airport or City:

Trip Planner

Search our weather history database for the weather conditions in past years. The results will help you decide how hot, cold, wet, or windy it might be!

Date:

Astronomy

May. 22, 2013 Rise Set
Actual Time 6:12 AM CDT 8:42 PM CDT
Civil Twilight 5:42 AM CDT 9:13 PM CDT
Nautical Twilight 5:04 AM CDT 9:51 PM CDT
Astronomical Twilight 4:22 AM CDT 10:33 PM CDT
Moon 6:07 PM CDT (5/22) 4:15 AM CDT (5/22)
Length of Visible Light 15h 31m
Length of Day
14h 29m
Waxing Gibbous, 91% of the Moon is Illuminated
May 22
Waxing Gibbous
May 24
Full
May 31
Last Quarter
Jun 8
New
Jun 16
First Quarter

Hourly Weather History & Observations

Time (CDT) Temp. Dew Point Humidity Pressure Visibility Wind Dir Wind Speed Gust Speed Precip Events Conditions
12:53 AM 57.0 °F 48.0 °F 72% 29.81 in 10.0 mi WNW 9.2 mph - N/A   Mostly Cloudy
1:53 AM 55.9 °F 46.9 °F 72% 29.81 in 10.0 mi NW 10.4 mph - N/A   Overcast
2:53 AM 54.0 °F 46.9 °F 77% 29.82 in 10.0 mi WNW 9.2 mph - N/A   Clear
3:53 AM 53.1 °F 46.9 °F 80% 29.83 in 10.0 mi WNW 8.1 mph - N/A   Scattered Clouds
4:53 AM 51.1 °F 45.0 °F 80% 29.84 in 10.0 mi NW 8.1 mph - N/A   Clear
5:53 AM 50.0 °F 45.0 °F 83% 29.85 in 10.0 mi WNW 10.4 mph - N/A   Clear
6:53 AM 52.0 °F 45.0 °F 77% 29.86 in 10.0 mi NW 11.5 mph - N/A   Clear
7:53 AM 55.0 °F 44.1 °F 67% 29.86 in 10.0 mi NW 18.4 mph - N/A   Clear
8:53 AM 57.9 °F 45.0 °F 62% 29.88 in 10.0 mi NW 16.1 mph 24.2 mph N/A   Clear
9:53 AM 61.0 °F 46.0 °F 58% 29.90 in 10.0 mi NW 15.0 mph - N/A   Scattered Clouds
10:53 AM 63.0 °F 46.9 °F 56% 29.90 in 10.0 mi NW 12.7 mph - N/A   Scattered Clouds
11:00 AM 62.6 °F 46.4 °F 55% 29.91 in 10.0 mi NW 17.3 mph - N/A   Mostly Cloudy
11:08 AM 64.4 °F 46.4 °F 52% 29.91 in 10.0 mi NW 11.5 mph - N/A   Scattered Clouds
11:53 AM 64.9 °F 48.0 °F 54% 29.89 in 10.0 mi NW 11.5 mph - N/A   Partly Cloudy
12:53 PM 68.0 °F 48.9 °F 50% 29.89 in 10.0 mi Variable 6.9 mph 18.4 mph N/A   Partly Cloudy
1:53 PM 69.1 °F 48.9 °F 49% 29.89 in 10.0 mi NW 5.8 mph - N/A   Mostly Cloudy
2:53 PM 71.1 °F 51.1 °F 49% 29.88 in 10.0 mi North 10.4 mph 16.1 mph N/A   Partly Cloudy
3:53 PM 73.0 °F 51.1 °F 46% 29.86 in 10.0 mi NW 6.9 mph 18.4 mph N/A   Scattered Clouds
4:53 PM 73.9 °F 51.1 °F 45% 29.85 in 10.0 mi NNW 11.5 mph - N/A   Clear
5:53 PM 73.9 °F 51.1 °F 45% 29.86 in 10.0 mi NNW 9.2 mph - N/A   Scattered Clouds
6:53 PM 73.0 °F 51.1 °F 46% 29.87 in 10.0 mi North 10.4 mph - N/A   Clear
7:53 PM 72.0 °F 50.0 °F 46% 29.88 in 10.0 mi NE 4.6 mph - N/A   Clear
8:53 PM 70.0 °F 50.0 °F 49% 29.89 in 10.0 mi ENE 3.5 mph - N/A   Clear
9:53 PM 66.9 °F 51.1 °F 57% 29.92 in 10.0 mi ENE 3.5 mph - N/A   Clear
10:53 PM 64.9 °F 51.1 °F 61% 29.96 in 10.0 mi NE 9.2 mph - N/A   Clear
11:53 PM 61.0 °F 50.0 °F 67% 29.99 in 10.0 mi NE 9.2 mph - N/A   Clear